FW0014 Weather Reports


time (UTC)temp
C
wind
direction
speed
KPH
gust
KPH
rain 1hr
cm
rain 24hr
cm
rain mn
cm
humidity
%
barometer
mb
20260905194015 33 55 0.0 0.0 0.00 0.00 0.00 45 1012.1
20260905193817 33 91 0.0 0.0 0.00 0.00 0.00 45 1015.0
20260905193557 33 89 0.0 0.0 0.00 0.00 0.00 45 1012.2
20260905193314 33 118 0.0 0.0 0.00 0.00 0.00 45 1015.1
20260905193051 33 139 0.0 0.0 0.00 0.00 0.00 45 1012.3
20260905192832 33 87 0.0 0.0 0.00 0.00 0.00 46 1015.2
20260905192545 33 183 0.0 0.0 0.00 0.00 0.00 46 1012.3
20260905192330 33 198 0.0 0.0 0.00 0.00 0.00 46 1015.3
20260905192037 33 208 0.0 0.0 0.00 0.00 0.00 46 1012.6
20260905191846 33 139 0.0 0.0 0.00 0.00 0.00 46 1015.5
20260905191608 33 161 0.0 0.0 0.00 0.00 0.00 45 1012.7
20260905191322 33 127 0.0 0.0 0.00 0.00 0.00 45 1015.5
20260905191055 33 93 0.0 0.0 0.00 0.00 0.00 46 1012.8
20260905190818 33 129 0.0 0.0 0.00 0.00 0.00 47 1015.6
20260905190545 32 354 0.0 0.0 0.00 0.00 0.00 46 1012.7
20260905190400 33 21 0.0 0.0 0.00 0.00 0.00 46 1015.6
20260905190015 32 166 0.0 0.0 0.00 0.00 0.00 46 1013.0
20260905185830 33 139 0.0 0.0 0.00 0.00 0.00 46 1015.8
20260905185501 32 142 0.0 0.0 0.00 0.00 0.00 46 1012.9
20260905185328 33 201 0.0 0.0 0.00 0.00 0.00 47 1015.8
20260905185053 32 125 0.0 0.0 0.00 0.00 0.00 47 1013.1
20260905184826 33 122 0.0 0.0 0.00 0.00 0.00 48 1015.8
20260905184555 32 230 0.0 0.0 0.00 0.00 0.00 48 1013.0
20260905184323 33 170 0.0 0.0 0.00 0.00 0.00 48 1015.9
20260905184037 32 185 0.0 0.0 0.00 0.00 0.00 49 1013.2
20260905183820 32 190 0.0 0.0 0.00 0.00 0.00 49 1016.0
20260905183530 32 100 0.0 0.0 0.00 0.00 0.00 49 1013.1
20260905183318 32 175 0.0 0.0 0.00 0.00 0.00 49 1016.0
20260905183019 32 130 0.0 0.0 0.00 0.00 0.00 48 1013.3
20260905182815 32 127 0.0 0.0 0.00 0.00 0.00 48 1016.1
20260905182515 32 162 0.0 0.0 0.00 0.00 0.00 48 1013.3
20260905182337 32 143 0.0 0.0 0.00 0.00 0.00 49 1016.3
20260905182035 32 85 0.0 0.0 0.00 0.00 0.00 49 1013.3
20260905181830 32 103 0.0 0.0 0.00 0.00 0.00 50 1016.3
20260905181531 32 45 0.0 0.0 0.00 0.00 0.00 49 1013.5
20260905181328 32 96 0.0 0.0 0.00 0.00 0.00 49 1016.4
20260905181013 32 159 0.0 0.0 0.00 0.00 0.00 49 1013.7
20260905180826 32 147 0.0 0.0 0.00 0.00 0.00 50 1016.5
20260905180505 32 147 0.0 0.0 0.00 0.00 0.00 51 1013.7
20260905180323 32 131 0.0 0.0 0.00 0.00 0.00 51 1016.6
20260905180107 32 168 0.0 0.0 0.00 0.00 0.00 53 1013.8
20260905175821 32 216 0.0 0.0 0.00 0.00 0.00 54 1016.6
20260905175553 31 237 0.0 0.0 0.00 0.00 0.00 53 1014.0
20260905175339 32 168 0.0 0.0 0.00 0.00 0.00 53 1016.8
20260905175039 31 23 0.0 0.0 0.00 0.00 0.00 54 1014.0
20260905174830 32 12 0.0 0.0 0.00 0.00 0.00 53 1016.9
20260905174533 31 122 0.0 0.0 0.00 0.00 0.00 54 1014.2
20260905174328 32 157 0.0 0.0 0.00 0.00 0.00 54 1017.0
20260905174013 31 165 0.0 0.0 0.00 0.00 0.00 58 1014.3
20260905173825 32 278 0.0 0.0 0.00 0.00 0.00 59 1017.1
20260905173503 31 266 0.0 0.0 0.00 0.00 0.00 60 1014.2
20260905173323 32 231 0.0 0.0 0.00 0.00 0.00 60 1017.1
20260905173111 31 257 0.0 0.0 0.00 0.00 0.00 59 1014.2
20260905172821 31 54 0.0 0.0 0.00 0.00 0.00 58 1017.1
20260905172545 31 174 0.0 0.0 0.00 0.00 0.00 58 1014.4
20260905172319 31 134 0.0 0.0 0.00 0.00 0.00 58 1017.2
20260905172035 30 150 0.0 0.0 0.00 0.00 0.00 61 1014.4
20260905171838 31 118 0.0 0.0 0.00 0.00 0.00 61 1017.2
20260905171558 30 218 0.0 0.0 0.00 0.00 0.00 61 1014.5
20260905171314 30 180 0.0 0.0 0.00 0.00 0.00 62 1017.2
20260905171029 30 231 0.0 0.0 0.00 0.00 0.00 63 1014.5
20260905170831 30 16 0.0 0.0 0.00 0.00 0.00 63 1017.3
20260905170511 30 359 0.0 0.0 0.00 0.00 0.00 63 1014.5
20260905170328 30 235 0.0 0.0 0.00 0.00 0.00 63 1017.4
20260905170044 30 236 0.0 0.0 0.00 0.00 0.00 63 1014.6
20260905165825 30 243 0.0 0.0 0.00 0.00 0.00 63 1017.4
20260905165530 30 170 0.0 0.0 0.00 0.00 0.00 64 1014.6
20260905165323 30 170 0.0 0.0 0.00 0.00 0.00 63 1017.4
20260905165022 30 98 0.0 0.0 0.00 0.00 0.00 63 1014.6
20260905164822 30 133 0.0 0.0 0.00 0.00 0.00 63 1017.5
20260905164505 30 253 0.0 0.0 0.00 0.00 0.00 64 1014.6
20260905164320 30 157 0.0 0.0 0.00 0.00 0.00 64 1017.4
20260905164054 30 180 0.0 0.0 0.00 0.00 0.00 66 1014.7
20260905163818 30 254 0.0 0.0 0.00 0.00 0.00 67 1017.4
20260905163545 30 286 0.0 0.0 0.00 0.00 0.00 67 1014.7
20260905163315 30 218 0.0 0.0 0.00 0.00 0.00 67 1017.5
20260905163035 30 201 0.0 0.0 0.00 0.00 0.00 67 1014.8
20260905162813 30 152 0.0 0.0 0.00 0.00 0.00 67 1017.5
20260905162517 29 222 0.0 0.0 0.00 0.00 0.00 67 1014.7
20260905162352 30 209 0.0 0.0 0.00 0.00 0.00 67 1017.5
20260905162048 29 172 0.0 0.0 0.00 0.00 0.00 67 1014.6
20260905161829 30 166 0.0 0.0 0.00 0.00 0.00 67 1017.5
20260905161559 29 151 0.0 0.0 0.00 0.00 0.00 67 1014.6
20260905161347 29 133 0.0 0.0 0.00 0.00 0.00 66 1017.4
20260905161001 29 191 0.0 0.0 0.00 0.00 0.00 69 1014.7
20260905160823 29 292 0.0 0.0 0.00 0.00 0.00 70 1017.4
20260905160553 28 226 0.0 0.0 0.00 0.00 0.00 69 1014.6
20260905160322 29 162 0.0 0.0 0.00 0.00 0.00 68 1017.3
20260905160043 28 139 0.0 0.0 0.00 0.00 0.00 70 1014.6
20260905155840 28 253 0.0 0.0 0.00 0.28 0.00 72 1017.4
20260905155515 28 208 0.0 0.0 0.00 0.28 0.00 73 1014.6
20260905155316 28 195 0.0 0.0 0.00 0.28 0.00 72 1017.4
20260905155058 28 256 0.0 0.0 0.00 0.28 0.00 72 1014.7
20260905154814 28 143 0.0 0.0 0.00 0.28 0.00 74 1017.3
20260905154557 28 241 0.0 0.0 0.00 0.28 0.00 74 1014.6
20260905154327 28 180 0.0 0.0 0.00 0.28 0.00 73 1017.3
20260905154016 28 210 0.0 0.0 0.00 0.28 0.00 74 1014.6
20260905153824 28 226 0.0 0.0 0.00 0.28 0.00 74 1017.3
20260905153505 28 214 0.0 0.0 0.00 0.28 0.00 75 1014.5
20260905153322 28 185 0.0 0.0 0.00 0.28 0.00 75 1017.3
20260905153037 28 200 0.0 0.0 0.00 0.28 0.00 75 1014.6
20260905152820 28 233 0.0 0.0 0.00 0.28 0.00 76 1017.2
20260905152528 27 199 0.0 0.0 0.00 0.28 0.00 77 1014.6
20260905152317 28 214 0.0 0.0 0.00 0.28 0.00 77 1017.2
20260905152019 27 216 0.0 0.0 0.00 0.28 0.00 77 1014.5
20260905151815 28 228 0.0 0.0 0.00 0.28 0.00 77 1017.3
20260905151519 27 213 0.0 0.0 0.00 0.28 0.00 77 1014.5
20260905151330 27 239 0.0 0.0 0.00 0.28 0.00 78 1017.2
20260905151056 27 193 0.0 0.0 0.00 0.28 0.00 78 1014.4
20260905150827 27 215 0.0 0.0 0.00 0.28 0.00 78 1017.2
20260905150548 27 228 0.0 0.0 0.00 0.28 0.00 79 1014.3
20260905150323 27 214 0.0 0.0 0.00 0.28 0.00 80 1017.2
20260905150041 27 166 0.0 0.0 0.00 0.28 0.00 79 1014.5
20260905145839 27 195 0.0 0.0 0.00 0.28 0.00 80 1017.3
20260905145519 27 217 0.0 0.0 0.00 0.28 0.00 80 1014.6
20260905145315 27 178 0.0 0.0 0.00 0.28 0.00 80 1017.4
20260905145001 26 194 0.0 0.0 0.00 0.28 0.00 81 1014.7
20260905144833 27 194 0.0 0.0 0.00 0.28 0.00 82 1017.4
20260905144555 26 227 0.0 0.0 0.00 0.28 0.00 81 1014.6
20260905144329 26 170 0.0 0.0 0.00 0.28 0.00 82 1017.3
20260905144046 26 197 0.0 0.0 0.00 0.28 0.00 82 1014.6
20260905143824 26 214 0.0 0.0 0.00 0.28 0.00 83 1017.2
20260905143540 26 149 0.0 0.0 0.00 0.28 0.00 84 1014.5
20260905143340 26 191 0.0 0.0 0.00 0.28 0.00 85 1017.2
20260905143031 26 189 0.0 0.0 0.00 0.28 0.00 85 1014.5
20260905142830 26 197 0.0 0.0 0.00 0.28 0.00 86 1017.2
20260905142528 25 159 0.0 0.0 0.00 0.28 0.00 87 1014.5
20260905142325 26 206 0.0 0.0 0.00 0.28 0.00 87 1017.2
20260905142010 25 143 0.0 0.0 0.00 0.28 0.00 88 1014.5
20260905141822 25 184 0.0 0.0 0.00 0.28 0.00 88 1017.2
20260905141505 25 185 0.0 0.0 0.00 0.28 0.00 88 1014.4
20260905141321 25 184 0.0 0.0 0.00 0.28 0.00 88 1017.2
20260905141058 25 185 0.0 0.0 0.00 0.28 0.00 88 1014.4
20260905140817 25 147 0.0 0.0 0.00 0.28 0.00 88 1017.1
20260905140552 25 153 0.0 0.0 0.00 0.28 0.00 89 1014.5
20260905140316 25 222 0.0 0.0 0.00 0.28 0.00 89 1017.2
20260905140045 24 199 0.0 0.0 0.00 0.28 0.00 90 1014.6
20260905135814 25 63 0.0 0.0 0.00 0.36 0.00 90 1017.2
20260905135538 24 62 0.0 0.0 0.00 0.36 0.00 90 1014.6
20260905135314 24 63 0.0 1.6 0.00 0.36 0.00 90 1017.3
20260905135030 23 63 0.0 1.6 0.00 0.36 0.00 90 1014.7
20260905134833 24 63 0.0 4.8 0.00 0.36 0.00 90 1017.4
20260905134519 23 63 0.0 6.4 0.00 0.36 0.00 90 1014.7
20260905134351 23 63 0.0 6.4 0.00 0.36 0.00 90 1017.3
20260905134051 23 63 1.6 6.4 0.00 0.36 0.00 90 1014.5
20260905133827 23 63 3.2 6.4 0.00 0.36 0.00 91 1017.2
20260905133543 23 63 3.2 6.4 0.00 0.36 0.00 91 1014.4
20260905133325 23 65 3.2 6.4 0.00 0.36 0.00 91 1017.1
20260905133038 23 54 3.2 6.4 0.00 0.36 0.00 91 1014.5
20260905132824 23 197 3.2 4.8 0.00 0.36 0.00 91 1017.0
20260905132529 23 198 0.0 3.2 0.00 0.36 0.00 91 1014.4
20260905132322 23 198 0.0 3.2 0.00 0.36 0.00 91 1016.9
20260905132021 23 197 1.6 3.2 0.00 0.36 0.00 91 1014.2
20260905131820 23 198 1.6 3.2 0.00 0.36 0.00 91 1016.8
20260905131523 22 197 0.0 4.8 0.00 0.36 0.00 91 1014.2
20260905131338 23 197 1.6 4.8 0.00 0.36 0.00 91 1016.8
20260905131036 22 198 1.6 4.8 0.00 0.36 0.00 91 1014.1
20260905130816 23 197 3.2 4.8 0.00 0.36 0.00 91 1016.7
20260905130530 22 197 1.6 4.8 0.00 0.36 0.00 91 1013.9
20260905130353 22 198 1.6 4.8 0.00 0.36 0.00 91 1016.6
20260905130056 22 198 0.0 3.2 0.00 0.36 0.00 91 1013.8
20260905125852 22 197 1.6 3.2 0.00 0.41 0.00 91 1016.5
20260905125531 22 197 0.0 3.2 0.00 0.41 0.00 90 1013.8
20260905125329 22 198 0.0 3.2 0.00 0.41 0.00 90 1016.5
20260905125025 22 197 0.0 3.2 0.00 0.41 0.00 90 1013.8
20260905124827 22 198 1.6 3.2 0.00 0.41 0.00 90 1016.5
20260905124506 22 198 1.6 3.2 0.00 0.41 0.00 90 1013.7
20260905124325 22 198 1.6 4.8 0.00 0.41 0.00 90 1016.4
20260905124101 22 197 1.6 4.8 0.00 0.41 0.00 90 1013.6
20260905123820 22 197 1.6 4.8 0.00 0.41 0.00 89 1016.4
20260905123531 21 198 3.2 4.8 0.00 0.41 0.00 89 1013.7
20260905123339 22 359 3.2 4.8 0.00 0.41 0.00 89 1016.4
20260905123108 21 197 1.6 4.8 0.00 0.41 0.00 89 1013.7
20260905122817 22 197 0.0 4.8 0.00 0.41 0.00 89 1016.3
20260905122549 22 197 1.6 4.8 0.00 0.41 0.00 88 1013.4
20260905122315 22 198 3.2 3.2 0.00 0.41 0.00 88 1016.1
20260905122040 22 198 1.6 3.2 0.00 0.41 0.00 89 1013.4
20260905121831 22 198 1.6 3.2 0.00 0.41 0.00 89 1016.2
20260905121530 22 198 0.0 3.2 0.00 0.41 0.00 89 1013.3
20260905121329 22 197 0.0 3.2 0.00 0.41 0.00 90 1016.1
20260905121014 22 197 1.6 3.2 0.00 0.41 0.00 89 1013.3
20260905120826 22 197 3.2 3.2 0.00 0.41 0.00 89 1016.0
20260905120515 22 197 0.0 1.6 0.00 0.41 0.00 88 1013.4
20260905120323 22 197 0.0 1.6 0.00 0.41 0.00 88 1016.1
20260905120046 22 197 0.0 1.6 0.00 0.41 0.00 89 1013.4
20260905115821 22 197 0.0 3.2 0.00 0.43 0.00 89 1016.0
20260905115540 22 197 0.0 3.2 0.00 0.43 0.00 89 1013.2
20260905115339 23 197 1.6 3.2 0.00 0.43 0.00 89 1016.0
20260905115002 22 197 0.0 3.2 0.00 0.43 0.00 89 1013.2
20260905114816 23 197 1.6 3.2 0.00 0.43 0.00 89 1015.9
20260905114601 22 197 0.0 0.0 0.00 0.43 0.00 89 1013.3
20260905114314 23 197 0.0 0.0 0.00 0.43 0.00 88 1016.0
20260905114048 22 197 0.0 0.0 0.00 0.43 0.00 88 1013.3
20260905113852 23 197 0.0 0.0 0.00 0.43 0.00 88 1016.0
20260905113510 22 197 0.0 0.0 0.00 0.43 0.00 88 1013.3
20260905113329 23 197 0.0 0.0 0.00 0.43 0.00 88 1016.0
20260905113103 22 197 0.0 0.0 0.00 0.43 0.00 88 1013.2
20260905112827 23 197 0.0 0.0 0.00 0.43 0.00 88 1015.9
20260905112552 22 197 0.0 0.0 0.00 0.43 0.00 88 1013.2
20260905112324 23 197 0.0 0.0 0.00 0.43 0.00 87 1015.9
20260905112024 22 197 0.0 0.0 0.00 0.43 0.00 87 1013.2
20260905111822 23 197 0.0 0.0 0.00 0.43 0.00 87 1015.8
20260905111507 22 197 0.0 0.0 0.00 0.43 0.00 87 1013.1
20260905111320 23 197 0.0 0.0 0.00 0.43 0.00 87 1015.8
20260905111100 23 197 0.0 0.0 0.00 0.43 0.00 87 1012.9
20260905110839 23 197 0.0 0.0 0.00 0.43 0.00 87 1015.7
20260905110548 23 197 0.0 1.6 0.00 0.43 0.00 87 1013.0
20260905110330 23 197 0.0 1.6 0.00 0.43 0.00 87 1015.7
20260905110040 23 197 0.0 1.6 0.00 0.43 0.00 87 1012.9
20260905105829 23 197 0.0 3.2 0.00 0.43 0.00 87 1015.7
20260905105530 23 197 0.0 3.2 0.00 0.43 0.00 86 1012.9
20260905105326 23 197 1.6 3.2 0.00 0.43 0.00 86 1015.8
20260905105058 23 197 1.6 3.2 0.00 0.43 0.00 86 1013.1
20260905104824 23 197 0.0 1.6 0.00 0.43 0.00 87 1015.8
20260905104547 23 197 0.0 1.6 0.00 0.43 0.00 87 1013.1
20260905104321 23 197 0.0 3.2 0.00 0.43 0.00 87 1015.8
20260905104022 23 197 0.0 3.2 0.00 0.43 0.00 87 1013.1
20260905103819 23 197 0.0 3.2 0.00 0.43 0.00 87 1015.8
20260905103600 23 197 1.6 3.2 0.00 0.43 0.00 87 1013.0
20260905103337 23 197 1.6 3.2 0.00 0.43 0.00 87 1015.7
20260905103032 23 197 0.0 1.6 0.00 0.43 0.00 87 1013.0
20260905102814 24 197 0.0 0.0 0.00 0.43 0.00 87 1015.7
20260905102514 23 197 0.0 0.0 0.00 0.43 0.00 87 1013.1
20260905102332 24 197 0.0 0.0 0.00 0.43 0.00 87 1015.8
20260905102006 23 197 0.0 1.6 0.00 0.43 0.00 87 1013.0
20260905101830 24 197 0.0 1.6 0.00 0.43 0.00 86 1015.8
20260905101607 23 197 0.0 1.6 0.00 0.43 0.00 86 1013.0
20260905101329 24 197 0.0 1.6 0.00 0.43 0.00 86 1015.8
20260905101052 23 197 0.0 0.0 0.00 0.43 0.00 86 1013.0
20260905100826 24 197 0.0 0.0 0.00 0.43 0.00 86 1015.8
20260905100544 23 197 0.0 0.0 0.00 0.43 0.00 86 1012.9
20260905100324 24 197 0.0 0.0 0.00 0.43 0.00 86 1015.7
20260905100108 24 197 0.0 1.6 0.00 0.43 0.00 86 1012.9
20260905095822 24 197 0.0 4.8 0.00 0.43 0.00 86 1015.7
20260905095528 24 197 0.0 4.8 0.00 0.43 0.00 86 1012.9
20260905095320 24 197 0.0 4.8 0.00 0.43 0.00 86 1015.6
20260905095020 24 197 1.6 4.8 0.00 0.43 0.00 86 1012.9
20260905094818 24 197 0.0 6.4 0.00 0.43 0.00 86 1015.7
20260905094519 24 197 0.0 11.3 0.00 0.43 0.00 86 1012.9
20260905094316 24 197 1.6 11.3 0.00 0.43 0.00 86 1015.7
20260905094058 24 197 4.8 11.3 0.00 0.43 0.00 86 1013.0
20260905093829 24 197 1.6 6.4 0.00 0.43 0.00 86 1015.8
20260905093528 24 197 3.2 6.4 0.00 0.43 0.00 86 1012.9
20260905093326 24 197 3.2 6.4 0.00 0.43 0.00 86 1015.6
20260905093013 24 197 3.2 8.0 0.00 0.43 0.00 86 1012.8
20260905092824 24 197 3.2 9.7 0.00 0.43 0.00 86 1015.5
20260905092506 24 197 4.8 9.7 0.00 0.43 0.00 86 1012.8
20260905092321 24 197 4.8 9.7 0.00 0.43 0.00 86 1015.6
20260905092056 24 195 6.4 9.7 0.00 0.43 0.00 86 1012.9
20260905091839 24 201 6.4 12.9 0.00 0.43 0.00 86 1015.5
20260905091555 24 236 4.8 12.9 0.00 0.43 0.00 86 1012.9
20260905091331 24 191 6.4 12.9 0.00 0.43 0.00 86 1015.6
20260905091041 24 218 6.4 12.9 0.00 0.43 0.00 86 1012.9
20260905090850 24 210 6.4 9.7 0.00 0.43 0.00 86 1015.7
20260905090512 24 224 4.8 9.7 0.00 0.43 0.00 86 1013.0
20260905090327 24 199 4.8 9.7 0.00 0.43 0.00 86 1015.6
20260905090012 24 199 4.8 9.7 0.00 0.43 0.00 86 1013.0
20260905085826 24 199 6.4 9.7 0.00 0.43 0.00 86 1015.7
20260905085504 24 194 4.8 9.7 0.00 0.43 0.00 86 1012.9
20260905085324 24 195 6.4 9.7 0.00 0.43 0.00 85 1015.7
20260905085058 24 203 3.2 6.4 0.00 0.43 0.00 85 1012.9
20260905084843 24 187 3.2 6.4 0.00 0.43 0.00 85 1015.6
20260905084528 24 187 1.6 6.4 0.00 0.43 0.00 85 1012.9
20260905084340 24 187 3.2 6.4 0.00 0.43 0.00 85 1015.5
20260905084016 24 187 3.2 8.0 0.00 0.43 0.00 85 1012.9
20260905083830 24 187 3.2 8.0 0.00 0.43 0.00 85 1015.6
20260905083502 24 187 3.2 8.0 0.00 0.43 0.00 85 1012.9
20260905083327 24 210 3.2 8.0 0.00 0.43 0.00 85 1015.5
20260905083109 24 208 3.2 8.0 0.00 0.43 0.00 85 1012.8
20260905082844 24 205 4.8 8.0 0.00 0.43 0.00 85 1015.5
20260905082528 23 205 3.2 8.0 0.00 0.43 0.00 85 1012.7
20260905082320 24 205 3.2 8.0 0.00 0.43 0.00 85 1015.4
20260905082021 23 204 3.2 8.0 0.00 0.43 0.00 85 1012.7
20260905081818 24 205 4.8 8.0 0.00 0.43 0.00 85 1015.4
20260905081518 23 204 4.8 8.0 0.00 0.43 0.00 85 1012.8
20260905081335 23 205 4.8 8.0 0.00 0.43 0.00 85 1015.4
20260905081040 23 169 3.2 8.0 0.00 0.43 0.00 85 1012.7
20260905080851 23 169 6.4 8.0 0.00 0.43 0.00 85 1015.5
20260905080504 23 177 3.2 8.0 0.00 0.43 0.00 85 1012.9
20260905080327 23 176 4.8 8.0 0.00 0.43 0.00 85 1015.6
20260905080058 23 177 1.6 3.2 0.00 0.43 0.00 84 1013.0
20260905075844 23 177 1.6 3.2 0.00 0.43 0.00 84 1015.6
20260905075529 23 177 0.0 1.6 0.00 0.43 0.00 84 1013.0
20260905075341 23 177 0.0 1.6 0.00 0.43 0.00 83 1015.8
20260905075054 23 177 0.0 1.6 0.00 0.43 0.00 83 1013.0
20260905074837 23 177 0.0 1.6 0.00 0.43 0.00 83 1015.8
20260905074523 23 177 0.0 1.6 0.00 0.43 0.00 83 1013.0
20260905074329 23 177 0.0 0.0 0.00 0.43 0.00 83 1015.8
20260905074050 23 177 0.0 0.0 0.00 0.43 0.00 83 1013.1
20260905073846 23 177 0.0 0.0 0.00 0.43 0.00 83 1015.9
20260905073514 23 177 0.0 0.0 0.00 0.43 0.00 83 1013.2
20260905073343 23 177 0.0 0.0 0.00 0.43 0.00 83 1016.0
20260905073046 23 177 0.0 0.0 0.00 0.43 0.00 83 1013.3
20260905072820 23 177 0.0 0.0 0.00 0.43 0.00 83 1016.0
20260905072538 23 177 0.0 0.0 0.00 0.43 0.00 83 1013.4
20260905072317 23 176 0.0 0.0 0.00 0.43 0.00 83 1016.1
20260905072032 23 177 0.0 1.6 0.00 0.43 0.00 83 1013.4
20260905071833 24 177 0.0 1.6 0.00 0.43 0.00 83 1016.0
20260905071518 23 176 0.0 1.6 0.00 0.43 0.00 83 1013.3
20260905071350 24 177 0.0 1.6 0.00 0.43 0.00 82 1016.0
20260905071051 23 177 0.0 1.6 0.00 0.43 0.00 82 1013.3
20260905070827 24 177 0.0 1.6 0.00 0.43 0.00 82 1016.1
20260905070540 23 176 0.0 1.6 0.00 0.43 0.00 82 1013.5
20260905070324 24 176 0.0 1.6 0.00 0.43 0.00 82 1016.3
20260905070030 24 177 0.0 1.6 0.00 0.43 0.00 82 1013.6
20260905065821 24 177 0.0 0.0 0.00 0.43 0.00 81 1016.4
20260905065522 24 177 0.0 0.0 0.00 0.43 0.00 81 1013.6
20260905065318 24 177 0.0 0.0 0.00 0.43 0.00 81 1016.4
20260905065018 24 177 0.0 0.0 0.00 0.43 0.00 81 1013.6
20260905064814 24 177 0.0 0.0 0.00 0.43 0.00 81 1016.3
20260905064618 24 177 0.0 0.0 0.00 0.43 0.00 81 1013.6
20260905064331 24 177 0.0 0.0 0.00 0.43 0.00 81 1016.4
20260905064052 24 177 0.0 1.6 0.00 0.43 0.00 81 1013.6
20260905063848 24 176 0.0 1.6 0.00 0.43 0.00 81 1016.3
20260905063514 24 177 0.0 3.2 0.00 0.43 0.00 81 1013.5
20260905063346 24 177 0.0 3.2 0.00 0.43 0.00 81 1016.3
20260905063046 24 176 0.0 3.2 0.00 0.43 0.00 81 1013.5
20260905062844 25 177 1.6 3.2 0.00 0.43 0.00 81 1016.2
20260905062519 24 177 0.0 3.2 0.00 0.43 0.00 81 1013.5
20260905062320 25 177 1.6 3.2 0.00 0.43 0.00 81 1016.3
20260905062103 24 177 0.0 4.8 0.00 0.43 0.00 81 1013.6
20260905061818 25 177 1.6 4.8 0.00 0.43 0.00 81 1016.4
20260905061604 24 177 1.6 4.8 0.00 0.43 0.00 81 1013.6
20260905061316 25 177 3.2 4.8 0.00 0.43 0.00 81 1016.4
20260905061054 24 177 3.2 4.8 0.00 0.43 0.00 81 1013.6
20260905060854 25 177 3.2 4.8 0.00 0.43 0.00 81 1016.4
20260905060529 24 177 0.0 1.6 0.00 0.43 0.00 80 1013.6
20260905060330 25 177 0.0 1.6 0.00 0.43 0.00 80 1016.3
20260905060116 24 177 0.0 3.2 0.00 0.43 0.00 80 1013.6
20260905055825 25 177 0.0 3.2 0.00 0.43 0.00 80 1016.3
20260905055553 24 177 0.0 3.2 0.00 0.43 0.00 80 1013.5
20260905055323 25 177 1.6 3.2 0.00 0.43 0.00 80 1016.4
20260905055046 25 177 1.6 3.2 0.00 0.43 0.00 80 1013.6
20260905054842 25 176 1.6 3.2 0.00 0.43 0.00 80 1016.3
20260905054539 25 177 0.0 4.8 0.00 0.43 0.00 80 1013.6
20260905054340 25 176 1.6 4.8 0.00 0.43 0.00 80 1016.4
20260905054039 25 177 1.6 4.8 0.00 0.43 0.00 80 1013.5
20260905053831 25 177 3.2 4.8 0.00 0.43 0.00 80 1016.4
20260905053534 25 177 1.6 4.8 0.00 0.43 0.00 80 1013.5
20260905053329 25 177 1.6 4.8 0.00 0.43 0.00 80 1016.4
20260905053016 25 177 1.6 4.8 0.00 0.43 0.00 79 1013.6
20260905052828 25 177 1.6 4.8 0.00 0.43 0.00 79 1016.3
20260905052505 25 177 0.0 4.8 0.00 0.43 0.00 79 1013.5
20260905052345 25 177 1.6 4.8 0.00 0.43 0.00 79 1016.3
20260905052038 25 176 1.6 9.7 0.00 0.43 0.00 79 1013.4
20260905051822 25 177 1.6 11.3 0.00 0.43 0.00 79 1016.3
20260905051530 25 176 1.6 11.3 0.00 0.43 0.00 79 1013.5
20260905051320 25 176 4.8 12.9 0.00 0.43 0.00 79 1016.1
20260905051020 25 156 4.8 12.9 0.00 0.43 0.00 80 1013.4
20260905050839 25 150 6.4 12.9 0.00 0.43 0.00 80 1016.2
20260905050600 25 155 4.8 12.9 0.00 0.43 0.00 80 1013.4
20260905050330 25 136 4.8 12.9 0.00 0.43 0.00 80 1016.1
20260905050051 25 146 6.4 12.9 0.00 0.43 0.00 80 1013.5
20260905045838 25 145 6.4 12.9 0.00 0.43 0.43 80 1016.2
20260905045521 25 150 6.4 8.0 0.00 0.43 0.43 80 1013.5
20260905045331 25 162 6.4 9.7 0.00 0.43 0.43 80 1016.4
20260905045002 25 132 3.2 6.4 0.00 0.43 0.43 79 1013.6
20260905044830 25 132 3.2 6.4 0.00 0.43 0.43 79 1016.5
20260905044607 25 132 1.6 6.4 0.00 0.43 0.43 79 1013.7
20260905044329 25 132 3.2 6.4 0.00 0.43 0.43 79 1016.5
20260905044048 25 132 3.2 4.8 0.00 0.43 0.43 79 1013.6
20260905043828 25 131 3.2 4.8 0.00 0.43 0.43 78 1016.4
20260905043542 25 132 1.6 4.8 0.00 0.43 0.43 78 1013.5
20260905043326 25 132 1.6 4.8 0.00 0.43 0.43 78 1016.3
20260905043034 25 132 0.0 4.8 0.00 0.43 0.43 78 1013.5
20260905042826 25 132 3.2 4.8 0.00 0.43 0.43 78 1016.3
20260905042528 25 131 3.2 4.8 0.00 0.43 0.43 78 1013.5
20260905042324 25 132 3.2 4.8 0.00 0.43 0.43 77 1016.3
20260905042012 25 132 1.6 4.8 0.00 0.43 0.43 77 1013.5
20260905041823 25 132 1.6 3.2 0.00 0.43 0.43 77 1016.3
20260905041504 25 132 0.0 3.2 0.00 0.43 0.43 77 1013.5
20260905041323 26 132 1.6 3.2 0.00 0.43 0.43 77 1016.3
20260905041102 25 131 0.0 3.2 0.00 0.43 0.43 77 1013.6
20260905040821 26 131 1.6 3.2 0.00 0.43 0.43 76 1016.3
20260905040552 25 133 0.0 3.2 0.00 0.43 0.43 76 1013.4
20260905040320 26 132 1.6 3.2 0.00 0.43 0.43 76 1016.3
20260905040042 26 132 1.6 3.2 0.00 0.43 0.43 76 1013.5
20260905035838 26 132 1.6 3.2 0.00 0.43 0.43 76 1016.3
20260905035533 26 132 1.6 3.2 0.00 0.43 0.43 76 1013.4
20260905035330 26 132 1.6 3.2 0.00 0.43 0.43 75 1016.2
20260905035021 26 132 0.0 4.8 0.00 0.43 0.43 75 1013.4
20260905034829 26 131 1.6 4.8 0.00 0.43 0.43 75 1016.2
20260905034508 26 131 0.0 4.8 0.00 0.43 0.43 75 1013.3
20260905034350 26 131 1.6 4.8 0.00 0.43 0.43 75 1016.1
20260905034041 26 131 0.0 3.2 0.00 0.43 0.43 74 1013.3
20260905033828 26 132 0.0 4.8 0.00 0.43 0.43 74 1016.0
20260905033532 26 132 0.0 4.8 0.00 0.43 0.43 74 1013.2
20260905033326 26 132 1.6 4.8 0.00 0.43 0.43 74 1016.0
20260905033028 26 132 0.0 4.8 0.00 0.43 0.43 74 1013.2
20260905032826 26 132 3.2 4.8 0.00 0.43 0.43 73 1016.0
20260905032512 26 131 0.0 1.6 0.00 0.43 0.43 73 1013.1
20260905032326 26 132 1.6 1.6 0.00 0.43 0.43 73 1015.9
20260905032010 26 132 0.0 0.0 0.00 0.43 0.43 73 1013.3
20260905031825 26 132 0.0 0.0 0.00 0.43 0.43 73 1016.0
20260905031558 26 132 0.0 0.0 0.00 0.43 0.43 73 1013.3
20260905031321 26 132 0.0 0.0 0.00 0.43 0.43 72 1016.0
20260905031051 26 131 0.0 0.0 0.00 0.43 0.43 72 1013.2
20260905030840 26 132 0.0 0.0 0.00 0.43 0.43 72 1015.9
20260905030528 26 132 0.0 0.0 0.00 0.43 0.43 72 1013.1
20260905030336 26 131 0.0 1.6 0.00 0.43 0.43 72 1015.8
20260905030058 26 132 0.0 1.6 0.00 0.43 0.43 72 1012.9
20260905025832 26 131 0.0 1.6 0.00 0.43 0.43 72 1015.7
20260905025532 26 131 0.0 1.6 0.00 0.43 0.43 73 1013.0
20260905025350 26 131 0.0 3.2 0.00 0.43 0.43 72 1015.7
20260905025056 26 132 0.0 3.2 0.00 0.43 0.43 73 1012.9
20260905024829 26 131 0.0 3.2 0.00 0.43 0.43 73 1015.7
20260905024556 26 132 0.0 3.2 0.00 0.43 0.43 73 1013.0
20260905024326 26 132 1.6 3.2 0.00 0.43 0.43 73 1015.8
20260905024037 26 131 0.0 4.8 0.00 0.43 0.43 72 1013.0
20260905023824 27 132 1.6 4.8 0.00 0.43 0.43 72 1015.7
20260905023530 26 132 1.6 4.8 0.00 0.43 0.43 72 1012.9
20260905023322 26 132 1.6 4.8 0.00 0.43 0.43 72 1015.6
20260905023020 26 132 3.2 4.8 0.00 0.43 0.43 72 1012.7
20260905022840 26 131 3.2 6.4 0.00 0.43 0.43 72 1015.4
20260905022543 26 127 1.6 6.4 0.00 0.43 0.43 72 1012.5
20260905022317 27 99 1.6 6.4 0.00 0.43 0.43 72 1015.4
20260905022036 26 112 3.2 6.4 0.00 0.43 0.43 72 1012.5
20260905021815 27 106 4.8 6.4 0.00 0.43 0.43 72 1015.3
20260905021524 26 104 3.2 6.4 0.00 0.43 0.43 72 1012.5
20260905021329 27 124 4.8 6.4 0.00 0.43 0.43 71 1015.3
20260905021011 27 104 3.2 6.4 0.00 0.43 0.43 71 1012.5
20260905020829 27 203 4.8 6.4 0.00 0.43 0.43 71 1015.3
20260905020502 27 203 1.6 4.8 0.00 0.43 0.43 70 1012.3
20260905020326 27 203 3.2 4.8 0.00 0.43 0.43 70 1015.0
20260905020037 27 204 1.6 4.8 0.00 0.43 0.43 70 1012.4
20260905015823 27 203 3.2 4.8 0.00 0.43 0.43 69 1015.1
20260905015526 27 204 1.6 4.8 0.00 0.43 0.43 69 1012.2
20260905015342 27 204 3.2 4.8 0.00 0.43 0.43 69 1015.0
20260905015050 27 204 1.6 4.8 0.00 0.43 0.43 69 1012.3
20260905014818 28 204 3.2 4.8 0.00 0.43 0.43 68 1015.0
20260905014540 27 203 1.6 4.8 0.00 0.43 0.43 68 1012.2
20260905014316 28 203 3.2 4.8 0.00 0.43 0.43 68 1015.0
20260905014030 27 204 1.6 4.8 0.00 0.43 0.43 67 1012.2
20260905013835 28 204 1.6 3.2 0.00 0.43 0.43 67 1015.0
20260905013554 28 204 1.6 4.8 0.00 0.43 0.43 67 1012.1
20260905013331 28 204 1.6 6.4 0.00 0.43 0.43 67 1015.0
20260905013016 28 204 1.6 6.4 0.00 0.43 0.43 66 1012.1
20260905012830 28 203 3.2 6.4 0.00 0.43 0.43 66 1014.9
20260905012509 28 203 3.2 4.8 0.00 0.43 0.43 66 1012.0
20260905012347 28 204 3.2 4.8 0.00 0.43 0.43 66 1014.9
20260905012040 28 204 3.2 6.4 0.00 0.43 0.43 66 1012.0
20260905011824 28 203 3.2 6.4 0.00 0.43 0.43 65 1014.7
20260905011529 28 203 1.6 6.4 0.00 0.43 0.43 65 1012.0
20260905011322 29 204 3.2 6.4 0.00 0.43 0.43 65 1014.8
20260905011025 28 204 1.6 6.4 0.00 0.43 0.43 64 1011.9
20260905010820 29 204 3.2 6.4 0.00 0.43 0.43 64 1014.8
20260905010502 29 204 3.2 6.4 0.00 0.43 0.43 63 1011.9
20260905010318 29 204 4.8 6.4 0.00 0.43 0.43 63 1014.8
20260905005836 30 201 3.2 4.8 0.00 0.43 0.43 62 1014.8
20260905005516 30 195 0.0 4.8 0.00 0.43 0.43 62 1011.9
20260905005354 30 195 3.2 4.8 0.00 0.43 0.43 61 1014.8
20260905005046 30 195 0.0 0.0 0.00 0.43 0.43 61 1011.8
20260905004830 30 195 0.0 0.0 0.00 0.43 0.43 61 1014.7
20260905004507 30 182 0.0 0.0 0.00 0.43 0.43 60 1011.9
20260905004346 30 218 0.0 0.0 0.00 0.43 0.43 60 1014.6
20260905004040 30 218 0.0 0.0 0.00 0.43 0.43 60 1011.9
20260905003823 30 218 0.0 0.0 0.00 0.43 0.43 59 1014.7
20260905003535 30 218 0.0 0.0 0.00 0.43 0.43 59 1011.8
20260905003322 31 201 0.0 0.0 0.00 0.43 0.43 58 1014.5
20260905003025 30 227 0.0 0.0 0.00 0.43 0.43 58 1011.7
20260905002840 31 202 0.0 0.0 0.00 0.43 0.43 57 1014.7
20260905002548 31 194 0.0 0.0 0.00 0.43 0.43 57 1011.9
20260905002316 31 211 0.0 0.0 0.00 0.43 0.43 56 1014.6
20260905002038 31 218 0.0 0.0 0.00 0.43 0.43 56 1011.7
20260905001851 31 234 0.0 0.0 0.00 0.43 0.43 55 1014.5
20260905001603 31 191 0.0 0.0 0.00 0.43 0.43 55 1011.6
20260905001328 32 187 0.0 0.0 0.00 0.43 0.43 53 1014.5
20260905001053 31 172 0.0 0.0 0.00 0.43 0.43 52 1011.5
20260905000826 32 178 0.0 0.0 0.00 0.43 0.43 52 1014.3
20260905000550 32 162 0.0 0.0 0.00 0.43 0.43 52 1011.3
20260905000325 32 157 0.0 0.0 0.00 0.43 0.43 52 1014.2
20260905000048 32 143 0.0 0.0 0.00 0.43 0.43 52 1011.3
20260904235824 32 154 0.0 0.0 0.00 0.43 0.43 52 1014.2
20260904235547 32 153 0.0 0.0 0.00 0.43 0.43 52 1011.3
20260904235322 32 165 0.0 0.0 0.00 0.43 0.43 52 1014.0
20260904235043 32 164 0.0 0.0 0.00 0.43 0.43 52 1011.1
20260904234820 32 130 0.0 0.0 0.00 0.43 0.43 52 1014.0
20260904234534 32 133 0.0 0.0 0.00 0.43 0.43 51 1011.2
20260904234320 32 143 0.0 0.0 0.00 0.43 0.43 51 1013.9
20260904234031 32 160 0.0 0.0 0.00 0.43 0.43 51 1011.0
20260904233839 32 129 0.0 0.0 0.00 0.43 0.43 51 1013.8
20260904233515 32 160 0.0 0.0 0.00 0.43 0.43 51 1010.9
20260904233331 32 168 0.0 0.0 0.00 0.43 0.43 51 1013.8
20260904233002 32 108 0.0 0.0 0.00 0.43 0.43 51 1010.9
20260904232829 32 139 0.0 0.0 0.00 0.43 0.43 51 1013.7
20260904232558 32 149 0.0 0.0 0.00 0.43 0.43 52 1010.9
20260904232329 32 163 0.0 0.0 0.00 0.43 0.43 51 1013.7
20260904232046 32 154 0.0 0.0 0.00 0.43 0.43 52 1010.8
20260904231828 32 154 0.0 0.0 0.00 0.43 0.43 51 1013.6
20260904231550 32 159 0.0 0.0 0.00 0.43 0.43 51 1010.9
20260904231326 32 173 0.0 0.0 0.00 0.43 0.43 51 1013.8
20260904231028 32 170 0.0 0.0 0.00 0.43 0.43 50 1010.8
20260904230826 32 203 0.0 0.0 0.00 0.43 0.43 50 1013.8
20260904230514 32 201 0.0 0.0 0.00 0.43 0.43 51 1010.8
20260904230325 33 147 0.0 0.0 0.00 0.43 0.43 50 1013.8
20260904230015 32 184 0.0 0.0 0.00 0.43 0.43 49 1010.9
20260904225823 33 144 0.0 0.0 0.00 0.43 0.43 49 1013.7
20260904225603 32 181 0.0 0.0 0.00 0.43 0.43 50 1010.9
20260904225323 32 113 0.0 0.0 0.00 0.43 0.43 50 1013.8
20260904225056 32 137 0.0 0.0 0.00 0.43 0.43 50 1010.9
20260904224821 32 170 0.0 0.0 0.00 0.43 0.43 49 1013.8
20260904224547 32 158 0.0 0.0 0.00 0.43 0.43 50 1010.8
20260904224341 33 138 0.0 0.0 0.00 0.43 0.43 49 1013.8
20260904224022 33 160 0.0 0.0 0.00 0.43 0.43 49 1010.9
20260904223838 33 150 0.0 0.0 0.00 0.43 0.43 50 1013.8
20260904223513 33 133 0.0 0.0 0.00 0.43 0.43 50 1011.0
20260904223330 33 116 0.0 0.0 0.00 0.43 0.43 51 1013.8
20260904223058 32 151 0.0 0.0 0.00 0.43 0.43 51 1010.9
20260904222829 33 147 0.0 0.0 0.00 0.43 0.43 50 1014.0
20260904222549 32 143 0.0 0.0 0.00 0.43 0.43 51 1011.1
20260904222327 33 193 0.0 0.0 0.00 0.43 0.43 52 1014.0
20260904222041 32 131 0.0 0.0 0.00 0.43 0.43 51 1011.0
20260904221825 33 146 0.0 0.0 0.00 0.43 0.43 52 1013.8
20260904221541 32 183 0.0 0.0 0.00 0.43 0.43 53 1011.0
20260904221342 32 152 0.0 0.0 0.00 0.43 0.43 52 1014.0
20260904221100 32 154 0.0 0.0 0.00 0.43 0.43 53 1011.2
20260904220820 32 186 0.0 0.0 0.00 0.43 0.43 53 1014.1
20260904220554 32 188 0.0 0.0 0.00 0.43 0.43 54 1011.1
20260904220340 32 165 0.0 0.0 0.00 0.43 0.43 54 1014.2
20260904220027 32 160 0.0 0.0 0.00 0.43 0.43 54 1011.1
20260904215817 32 168 0.0 0.0 0.00 0.43 0.43 54 1014.1
20260904215519 32 154 0.0 0.0 0.00 0.43 0.43 54 1011.1
20260904215316 32 141 0.0 0.0 0.00 0.43 0.43 54 1014.1
20260904215003 32 181 0.0 0.0 0.00 0.43 0.43 56 1011.3
20260904214817 32 204 0.0 0.0 0.00 0.43 0.43 59 1014.3
20260904214600 32 180 0.0 0.0 0.00 0.43 0.43 59 1011.3
20260904214316 32 269 0.0 0.0 0.00 0.43 0.43 59 1014.5
20260904214051 32 299 0.0 0.0 0.00 0.43 0.43 59 1011.3
20260904213834 32 287 0.0 0.0 0.00 0.43 0.43 59 1014.2
20260904213516 32 278 0.0 0.0 0.00 0.43 0.43 59 1011.2
20260904213352 32 278 0.0 0.0 0.00 0.43 0.43 58 1014.3
20260904213048 32 295 0.0 0.0 0.00 0.43 0.43 58 1011.4
20260904212829 32 264 0.0 0.0 0.00 0.43 0.43 56 1014.4
20260904212540 32 144 0.0 0.0 0.00 0.43 0.43 54 1011.5
20260904212347 32 144 0.0 0.0 0.00 0.43 0.43 53 1014.5
20260904212004 32 116 0.0 0.0 0.00 0.43 0.43 53 1011.6
20260904211842 32 118 0.0 0.0 0.00 0.43 0.43 54 1014.6
20260904211535 32 152 0.0 0.0 0.00 0.43 0.43 53 1011.7
20260904211321 32 180 0.0 0.0 0.00 0.43 0.43 53 1014.7
20260904211031 32 158 0.0 0.0 0.00 0.43 0.43 53 1011.8
20260904210820 32 159 0.0 0.0 0.00 0.43 0.43 53 1014.7
20260904210520 32 155 0.0 0.0 0.00 0.43 0.43 53 1011.8
20260904210318 32 144 0.0 0.0 0.00 0.43 0.43 53 1014.8
20260904210021 32 143 0.0 0.0 0.00 0.43 0.43 53 1011.8
20260904205816 33 137 0.0 0.0 0.00 0.43 0.43 53 1014.8
20260904205513 32 138 0.0 0.0 0.00 0.43 0.43 53 1011.9
20260904205314 33 132 0.0 0.0 0.00 0.43 0.43 53 1014.8
20260904205101 33 165 0.0 0.0 0.00 0.43 0.43 53 1011.8
20260904204832 33 134 0.0 0.0 0.00 0.43 0.43 54 1014.8
20260904204555 33 178 0.0 0.0 0.00 0.43 0.43 54 1011.9
20260904204330 33 174 0.0 0.0 0.00 0.43 0.43 54 1014.9
20260904204048 33 147 0.0 0.0 0.00 0.43 0.43 54 1012.0
20260904203829 33 223 0.0 0.0 0.00 0.43 0.43 55 1014.9
20260904203537 32 264 0.0 0.0 0.00 0.43 0.43 57 1012.0
20260904203326 32 236 0.0 0.0 0.00 0.43 0.43 57 1014.9
20260904203030 32 237 0.0 0.0 0.00 0.43 0.43 57 1012.0
20260904202824 32 235 0.0 0.0 0.00 0.43 0.43 56 1014.9
20260904202519 32 196 0.0 0.0 0.00 0.43 0.43 56 1012.1
20260904202321 32 181 0.0 0.0 0.00 0.43 0.43 56 1015.2
20260904202001 32 165 0.0 0.0 0.00 0.43 0.43 58 1012.2
20260904201819 32 203 0.0 0.0 0.00 0.43 0.43 57 1015.2
20260904201557 32 70 0.0 0.0 0.00 0.43 0.43 58 1012.2
20260904201400 32 138 0.0 0.0 0.00 0.43 0.43 57 1015.2
20260904201025 31 127 0.0 0.0 0.00 0.43 0.43 58 1012.2
20260904200830 32 147 0.0 0.0 0.00 0.43 0.43 55 1015.1
20260904200507 31 193 0.0 0.0 0.00 0.43 0.43 60 1012.2
20260904200349 31 167 0.0 0.0 0.00 0.43 0.43 58 1015.2
20260904200056 31 162 0.0 0.0 0.00 0.43 0.43 61 1012.3
20260904195826 31 162 0.0 0.0 0.00 0.43 0.43 59 1015.4
20260904195533 31 162 0.0 0.0 0.00 0.43 0.43 62 1012.3
20260904195324 31 162 0.0 0.0 0.00 0.43 0.43 66 1015.4
20260904195011 31 91 0.0 0.0 0.00 0.43 0.43 70 1012.4
20260904194842 31 349 0.0 0.0 0.00 0.43 0.43 72 1015.3
20260904194545 31 299 0.0 0.0 0.00 0.43 0.43 72 1012.5
20260904194319 31 359 0.0 0.0 0.00 0.43 0.43 72 1015.5